TimeCAT,TemperatureF,Dew PointF,Humidity,Sea Level PressureIn,VisibilityMPH,Wind Direction,Wind SpeedMPH,Gust SpeedMPH,PrecipitationIn,Events,Conditions,WindDirDegrees,DateUTC
12:00 AM,48.2,39.2,71,30.21,-9999.0,SW,2.3,-,N/A,,Clear,220,2013-07-14 22:00:00
1:00 AM,48.2,37.4,66,30.21,-9999.0,SW,3.5,-,N/A,,Clear,220,2013-07-14 23:00:00
2:00 AM,44.6,39.2,81,30.21,-9999.0,ESE,5.8,-,N/A,,Clear,110,2013-07-15 00:00:00
6:00 AM,39.2,37.4,93,30.27,-9999.0,NNE,3.5,-,N/A,,Clear,20,2013-07-15 04:00:00
7:00 AM,39.2,37.4,93,30.27,-9999.0,WSW,4.6,-,N/A,,Clear,240,2013-07-15 05:00:00
8:00 AM,44.6,39.2,81,30.30,-9999.0,SE,3.5,-,N/A,,Clear,140,2013-07-15 06:00:00
9:00 AM,53.6,33.8,47,30.33,-9999.0,Variable,1.2,-,N/A,,Clear,0,2013-07-15 07:00:00
10:00 AM,57.2,35.6,44,30.33,-9999.0,NE,6.9,-,N/A,,Clear,40,2013-07-15 08:00:00
11:00 AM,62.6,35.6,37,30.30,-9999.0,NE,9.2,-,N/A,,Clear,50,2013-07-15 09:00:00
12:00 PM,68.0,33.8,28,30.27,-9999.0,NE,10.4,-,N/A,,Clear,40,2013-07-15 10:00:00
1:00 PM,69.8,33.8,27,30.24,-9999.0,NE,9.2,-,N/A,,Clear,40,2013-07-15 11:00:00
2:00 PM,71.6,30.2,22,30.21,-9999.0,NW,9.2,-,N/A,,Clear,310,2013-07-15 12:00:00
3:00 PM,73.4,30.2,20,30.21,-9999.0,North,4.6,-,N/A,,Clear,360,2013-07-15 13:00:00
4:00 PM,73.4,30.2,20,30.18,-9999.0,North,5.8,-,N/A,,Clear,360,2013-07-15 14:00:00
5:00 PM,71.6,28.4,20,30.18,-9999.0,NNE,5.8,-,N/A,,Clear,30,2013-07-15 15:00:00
6:00 PM,68.0,32.0,26,30.21,-9999.0,East,4.6,-,N/A,,Clear,90,2013-07-15 16:00:00
7:00 PM,60.8,32.0,34,30.21,-9999.0,ESE,8.1,-,N/A,,Clear,110,2013-07-15 17:00:00
8:00 PM,60.8,32.0,34,30.21,-9999.0,East,8.1,-,N/A,,Clear,90,2013-07-15 18:00:00
9:00 PM,59.0,32.0,36,30.24,-9999.0,ESE,8.1,-,N/A,,Clear,110,2013-07-15 19:00:00
10:00 PM,53.6,32.0,44,30.24,-9999.0,SE,4.6,-,N/A,,Clear,140,2013-07-15 20:00:00
11:00 PM,51.8,33.8,50,30.24,-9999.0,SE,4.6,-,N/A,,Clear,140,2013-07-15 21:00:00